GSAT0212 (GALILEO 16) (41860 NORAD) Tracking and Keplerian Element Data

This shows tracking and keplerian element data for the satellite.

Feedback or suggestion? Click here.




ElementValue
Catalog41860
NameGSAT0212 (GALILEO 16)
Epoch Orbit3645
Epoch Day268.31381787
Epoch Year2022
RAAN138.8114
Inclination54.8376
Eccentricity0.0001998
Argument of Perigee6.544
Mean Anonmoly353.5728
Mean Motion1.70472723
Decay Rate4.2E-07
L11 41860U 16069B 22268.31381787 .00000042 00000+0 00000+0 0 9993
L22 41860 54.8376 138.8114 0001998 6.5440 353.5728 1.70472723 36450

Live tracking and technical data element details for GSAT0212 (GALILEO 16) (NORAD 41860). GSAT0212 (GALILEO 16) can be tracked NOW for your location showing map with azimuth and elevation plus other details from your city location.

Track the satellite on the map from your city or location and see movement details for azimuth, elevation, latitude, longitude, range, height, and movement on the map or in text.







IsCatalogInMostPopularTable: catalog: 41860, numindb: 664
Update: records affected: 1



GetName: 41860 GSAT0212 (GALILEO 16)

Hit Count: updated at: Fri, 30 Sep 2022 02:41:40 GMT